Torna al catalogo

DELTA 1 DEB

AttivoUNKNOWN
NORAD 10762·DEBRIS·🇺🇸 United States

Lanciato Jul 29, 1976 da Vandenberg Space Force Base

Loading…

Prossimi Passaggi (prossime 24 ore)

TLE

AggiornatoSource: Space-Track

Epoca: Sep 14, 2026, 10:12 UTC

1 10762U 76077BK  26257.42525540 -.00000591  00000-0 -54687-2 0  9991
2 10762 102.6433 326.5490 0673250 176.0189 184.6572 11.70146932605144

Traccia DELTA 1 DEB in tempo reale con AllMySat

Download on the App Store